Flag for Germany Weather past 2 weeks in Altenburg, Thuringia, Germany

Now
82 °F

Sunny.


Feels Like: 81 °F
Forecast: 60 / 78 °F
Wind: 12 mph from Northeast

Location: Leipzig-Schkeuditz

Current Time: Jul 23, 2014 at 1:33:11 PM

Latest Report: Jul 23, 2014 at 1:20 PM


Visibility: 10 mi

Pressure: 30.07 "Hg

Humidity: 35%

Dew point: 52 °F

Location of AltenburgLocation

Historic Weather in Altenburg — Graph

°F

Altenburg temperature yesterday

Maximum temperature yesterday: 84 °F (at 2:20 PM)
Minimum temperature yesterday: 63 °F (at 5:20 AM)
Average temperature yesterday: 74 °F

Past Weeks' High & Low Weather Summary

 TemperatureHumidityPressure
High93 °F (Jul 20, 3:50 PM)100% (Jul 8, 4:20 PM)30.18 "Hg (Jul 8, 4:20 PM)
Low52 °F (Jul 12, 3:50 AM)22% (Jul 19, 6:50 PM)29.53 "Hg (Jul 9, 7:50 AM)
Average70 °F69%29.92 "Hg
* Reported Jul 8 12:20 PM — Jul 23 12:20 PM, Altenburg, Weather by CustomWeather, © 2014

Note: Actual official high and low records may vary slightly from our data, if they occured in-between our weather recording intervals... More about our weather records

Advertising

Altenburg weather history for previous 24 hours

 ConditionsComfort  
Time TempWeatherWind HumidityBarometerVisibility
12:20 PM
Jul 23
81 °FSunny.10 mph39%30.07 "Hg10 mi
11:50 AM79 °FSunny.10 mph45%30.07 "Hg10 mi
11:20 AM79 °FPassing clouds.9 mph48%30.07 "HgN/A
10:20 AM75 °FSunny.9 mph57%30.09 "Hg10 mi
7:50 AM66 °FSunny.8 mph78%30.09 "Hg10 mi
7:20 AM64 °FSunny.7 mph83%30.07 "Hg10 mi
6:50 AM63 °FSunny.7 mph88%30.07 "Hg10 mi
6:20 AM63 °FClear.6 mph83%30.07 "Hg10 mi
5:50 AM63 °FClear.8 mph83%30.07 "Hg10 mi
5:20 AM63 °FClear.6 mph83%30.07 "Hg10 mi
4:50 AM63 °FClear.6 mph83%30.07 "Hg10 mi
4:20 AM64 °FClear.7 mph78%30.07 "Hg10 mi
3:50 AM66 °FClear.7 mph73%30.07 "Hg10 mi
3:20 AM66 °FClear.8 mph78%30.07 "Hg10 mi
2:50 AM68 °FClear.10 mph73%30.07 "Hg10 mi
2:20 AM68 °FClear.9 mph73%30.07 "Hg10 mi
1:50 AM70 °FClear.10 mph69%30.04 "Hg10 mi
6:50 PM
Jul 22
84 °FSunny.12 mph33%29.98 "Hg10 mi
6:20 PM82 °FSunny.13 mph37%29.98 "Hg10 mi
5:50 PM84 °FSunny.16 mph33%29.98 "Hg10 mi
5:20 PM84 °FSunny.12 mph33%29.98 "Hg10 mi
4:50 PM84 °FSunny.14 mph33%29.98 "Hg10 mi
4:20 PM84 °FSunny.16 mph33%29.98 "Hg10 mi
3:50 PM82 °FSunny.17 mph35%29.98 "Hg10 mi
3:20 PM82 °FSunny.15 mph37%29.98 "Hg10 mi
2:50 PM82 °FSunny.15 mph35%29.98 "Hg10 mi
2:20 PM84 °FSunny.16 mph33%29.98 "Hg10 mi
1:50 PM82 °FSunny.17 mph35%29.98 "Hg10 mi
1:20 PM82 °FSunny.15 mph37%29.98 "Hg10 mi
Weather by CustomWeather, © 2014

See weather overviewHow to use our weather pages